Weather reports worldwide

Advertisment
Chassiron, France (7314): temperature & dewpoint: 12.01.2020 12:00:00 - 18.01.2020 12:00:00 (CET)Chassiron, France (7314): wind speed & gusts: 12.01.2020 12:00:00 - 18.01.2020 12:00:00 (CET)Chassiron, France (7314): wind direction: 12.01.2020 12:00:00 - 18.01.2020 12:00:00 (CET)Chassiron, France (7314): reduced air pressure: 12.01.2020 12:00:00 - 18.01.2020 12:00:00 (CET)Chassiron, France (7314): visibility: 12.01.2020 12:00:00 - 18.01.2020 12:00:00 (CET)Chassiron, France (7314): precipitation: 12.01.2020 12:00:00 - 18.01.2020 12:00:00 (CET)
Date & Time tt [°C] td [°C] ff [km/h] ff [kn] fx [km/h] fx [kn] dd ppp [hPa] vv [km] rr [mm]
18.01.2020 12:00:00 - - - - - - - - - -
18.01.2020 11:00:00 7,9 6,2 15 8 25 14 ESE 1027,4 - 0,0
18.01.2020 10:00:00 6,7 5,2 13 7 22 12 SE 1027,7 12 0,0
18.01.2020 09:00:00 6,6 4,9 12 7 21 12 SE 1028,5 - 0,0
18.01.2020 08:00:00 6,9 4,7 12 7 21 11 ESE 1028,4 - 0,0
18.01.2020 07:00:00 7,1 3,9 12 7 16 9 ESE 1028,7 15 0,0
18.01.2020 06:00:00 8,5 5,2 9 5 14 8 ESE 1028,9 - 0,0
18.01.2020 05:00:00 9,3 5,3 5 3 18 10 E 1029,3 - 0,0
18.01.2020 04:00:00 10,7 3,9 16 9 22 12 WSW 1029,7 20 0,0
18.01.2020 03:00:00 10,2 3,7 10 5 22 12 W 1029,7 - 0,0
18.01.2020 02:00:00 10,4 5,0 9 5 17 9 W 1030,3 - 0,0
18.01.2020 01:00:00 10,4 5,2 13 7 36 19 W 1030,3 20 0,0
18.01.2020 00:00:00 10,5 5,0 25 14 38 21 WNW 1030,0 - 0,0
17.01.2020 23:00:00 10,9 3,9 29 15 48 26 W 1030,2 - 0,0
17.01.2020 22:00:00 10,9 4,4 31 17 48 26 W 1029,9 15 0,0
17.01.2020 21:00:00 10,9 5,4 31 17 56 30 W 1029,5 - 0,2
17.01.2020 20:00:00 11,0 4,9 27 15 47 26 WNW 1029,0 - 0,0
17.01.2020 19:00:00 10,3 5,7 26 14 44 24 WNW 1028,3 - 0,0
17.01.2020 18:00:00 10,6 5,1 32 18 51 28 W 1027,5 - 0,0
17.01.2020 17:00:00 10,7 6,1 26 14 55 30 W 1026,8 - 0,0
17.01.2020 16:00:00 10,5 6,1 32 17 55 30 W 1026,0 20 0,0
17.01.2020 15:00:00 11,0 7,5 21 11 65 35 WNW 1025,2 - 0,8
17.01.2020 14:00:00 11,9 5,3 35 19 51 27 W 1024,7 - 0,0
17.01.2020 13:00:00 11,9 6,6 29 16 49 26 WNW 1024,4 15 0,0
17.01.2020 12:00:00 11,7 6,2 31 17 52 28 WNW 1024,0 - 0,0
17.01.2020 11:00:00 11,2 8,1 32 18 55 30 W 1023,0 - 0,4
17.01.2020 10:00:00 11,6 6,1 35 19 53 29 WSW 1022,2 12 0,0
17.01.2020 09:00:00 11,6 5,9 45 25 65 35 W 1020,7 - 0,2
17.01.2020 08:00:00 10,4 8,2 29 16 61 33 W 1020,8 - 0,4
17.01.2020 07:00:00 11,6 7,3 31 17 66 36 WSW 1019,8 12 0,2
17.01.2020 06:00:00 12,5 9,5 37 20 56 31 WSW 1019,0 - 0,0
17.01.2020 05:00:00 12,4 10,3 30 16 47 25 SW 1018,6 - 0,0
17.01.2020 04:00:00 12,4 10,3 30 16 52 28 SW 1018,3 12 0,0
17.01.2020 03:00:00 12,3 11,0 36 19 50 27 SW 1018,1 - 0,4
17.01.2020 02:00:00 11,6 10,7 20 11 35 19 S 1018,0 - 1,0
17.01.2020 01:00:00 11,9 10,8 16 8 25 14 S 1018,1 12 0,4
17.01.2020 00:00:00 12,1 10,7 12 7 30 16 SW 1018,3 - 0,6
16.01.2020 23:00:00 13,0 10,9 17 9 46 25 WSW 1018,0 - 0,0
16.01.2020 22:00:00 13,0 9,8 29 16 63 34 S 1017,6 12 0,0
16.01.2020 21:00:00 13,2 8,3 39 21 62 34 SSE 1016,7 - 0,0
16.01.2020 20:00:00 13,4 8,5 34 18 55 30 SSE 1016,8 - 0,0
16.01.2020 19:00:00 12,9 8,8 27 15 44 24 SSE 1016,8 15 0,0
16.01.2020 18:00:00 13,9 8,3 28 15 53 29 SSE 1017,0 - 0,0
16.01.2020 17:00:00 14,5 8,9 42 23 65 35 S 1017,0 - 0,0
16.01.2020 16:00:00 15,0 8,7 46 25 69 37 S 1016,9 20 0,0
16.01.2020 15:00:00 14,5 8,9 41 22 64 35 S 1017,5 - 0,0
16.01.2020 14:00:00 14,1 8,1 43 23 68 37 SSE 1018,5 - 0,0
16.01.2020 13:00:00 13,9 7,9 32 17 55 30 SSE 1019,6 20 0,0
16.01.2020 12:00:00 12,7 7,8 25 14 50 27 SSE 1020,7 - 0,4
16.01.2020 11:00:00 11,1 7,2 28 15 44 24 SE 1020,6 - 0,0
16.01.2020 10:00:00 9,7 7,5 24 13 40 22 SSE 1020,9 10 0,0
16.01.2020 09:00:00 8,3 6,8 19 11 38 20 SSE 1021,3 - 0,0
16.01.2020 08:00:00 7,9 7,0 21 11 34 18 SE 1020,9 - 0,0
16.01.2020 07:00:00 7,1 6,7 19 10 34 18 SE 1021,1 10 0,0
16.01.2020 06:00:00 6,9 6,5 14 8 31 17 SE 1022,0 - 0,0
16.01.2020 05:00:00 7,5 7,1 14 8 27 15 SE 1022,6 - 0,0
16.01.2020 04:00:00 8,4 8,0 16 8 25 14 SE 1022,9 10 0,0
16.01.2020 03:00:00 8,6 8,2 15 8 23 13 SE 1022,9 - 0,2
16.01.2020 02:00:00 9,3 9,0 16 9 24 13 SSE 1023,3 - 0,0
16.01.2020 01:00:00 9,6 9,3 16 9 23 13 SSE 1023,6 - 0,0
16.01.2020 00:00:00 8,9 8,3 14 8 20 11 SSE 1023,8 - 0,0
15.01.2020 23:00:00 9,4 8,8 10 5 17 9 SE 1023,9 - 0,0
15.01.2020 22:00:00 9,5 8,9 10 6 14 8 SSE 1023,9 8 0,0
15.01.2020 21:00:00 8,5 7,4 9 5 15 8 SSE 1023,9 - 0,0
15.01.2020 20:00:00 9,8 8,4 10 5 14 8 SSE 1023,4 - 0,0
15.01.2020 19:00:00 10,7 8,8 6 3 13 7 SSE 1022,6 10 0,0
15.01.2020 18:00:00 11,5 9,6 10 5 17 9 SSW 1021,8 - 0,0
15.01.2020 17:00:00 12,2 9,6 11 6 23 12 W 1020,5 - 0,0
15.01.2020 16:00:00 11,9 10,0 16 9 29 16 W 1019,2 10 0,0
15.01.2020 15:00:00 12,1 10,0 19 10 36 20 W 1018,4 - 0,0
15.01.2020 14:00:00 12,3 10,0 26 14 43 23 W 1017,4 - 0,0
15.01.2020 13:00:00 13,5 11,0 32 17 55 30 WSW 1016,2 8 0,2
15.01.2020 12:00:00 13,0 11,2 29 16 54 29 S 1015,3 - 0,0
15.01.2020 11:00:00 12,8 10,3 34 18 64 35 S 1014,3 - 0,0
15.01.2020 10:00:00 12,1 9,1 47 25 68 37 S 1013,0 8 0,0
15.01.2020 09:00:00 11,7 8,9 41 22 63 34 SSE 1011,8 - 0,0
15.01.2020 08:00:00 11,1 8,3 34 19 57 31 SSE 1011,8 - 0,0
15.01.2020 07:00:00 10,7 7,6 33 18 54 29 SSE 1011,6 15 0,0
15.01.2020 06:00:00 11,0 7,7 42 23 59 32 SSE 1011,8 - 0,0
15.01.2020 05:00:00 10,6 7,3 35 19 58 32 SSE 1011,9 - 0,0
15.01.2020 04:00:00 10,7 6,8 39 21 60 32 SSE 1012,3 15 0,0
15.01.2020 03:00:00 10,5 7,0 39 21 63 34 SSE 1012,4 - 0,0
15.01.2020 02:00:00 10,6 7,1 38 21 64 34 SSE 1012,4 - 0,0
15.01.2020 01:00:00 10,7 6,8 37 20 63 34 SSE 1012,7 15 0,0
15.01.2020 00:00:00 11,0 7,3 41 22 61 33 SSE 1013,0 - 0,0
14.01.2020 23:00:00 11,2 8,4 37 20 51 28 SSE 1013,3 - 0,0
14.01.2020 22:00:00 11,4 8,8 35 19 53 29 S 1013,5 10 0,0
14.01.2020 21:00:00 11,8 8,8 31 17 49 27 SSE 1013,7 - 0,0
14.01.2020 20:00:00 11,7 8,7 28 15 45 25 SSE 1013,6 - 0,0
14.01.2020 19:00:00 11,9 8,2 27 14 42 23 SSE 1013,0 8 0,0
14.01.2020 18:00:00 11,8 8,8 23 12 43 23 SSE 1013,3 - 0,0
14.01.2020 17:00:00 11,1 9,2 28 15 45 25 SSE 1013,5 - 0,0
14.01.2020 16:00:00 10,6 9,2 29 16 49 26 SSE 1013,3 4,0 0,4
14.01.2020 15:00:00 10,9 9,2 34 18 51 28 S 1013,7 - 0,6
14.01.2020 14:00:00 10,6 8,5 38 21 58 31 S 1013,6 - 0,0
14.01.2020 13:00:00 10,5 8,4 36 20 54 29 S 1014,0 4,0 0,2
14.01.2020 12:00:00 10,2 8,3 36 19 57 31 SSE 1014,2 - 0,0
14.01.2020 11:00:00 10,1 8,5 39 21 56 31 SSE 1014,1 - 0,2
14.01.2020 10:00:00 9,2 8,1 32 18 51 27 SSE 1013,8 4,0 0,2
14.01.2020 09:00:00 9,6 8,7 34 19 53 29 SSE 1013,2 - 1,4
14.01.2020 08:00:00 11,8 10,9 26 14 44 24 S 1013,0 - 1,2
14.01.2020 07:00:00 11,8 10,7 29 15 43 23 S 1012,7 6 0,6
14.01.2020 06:00:00 11,9 10,6 29 16 44 24 S 1012,6 - 0,4
14.01.2020 05:00:00 12,2 10,4 31 17 40 22 SSW 1012,5 - 0,0
14.01.2020 04:00:00 12,4 9,9 31 17 47 25 S 1012,5 - 0,0
14.01.2020 03:00:00 12,2 9,6 33 18 46 25 S 1012,6 - 0,0
14.01.2020 02:00:00 11,3 9,6 31 17 48 26 SSE 1012,8 - 0,0
14.01.2020 01:00:00 11,6 9,7 32 17 52 28 S 1013,3 10 0,0
14.01.2020 00:00:00 10,8 9,1 35 19 47 26 S 1013,4 - 0,0
13.01.2020 23:00:00 11,1 9,4 34 18 51 27 SSE 1013,6 - 0,0
13.01.2020 22:00:00 10,8 8,9 37 20 54 29 S 1014,0 8 0,0
13.01.2020 21:00:00 10,8 8,9 39 21 53 29 S 1014,3 - 0,0
13.01.2020 20:00:00 11,4 9,1 40 22 58 32 S 1014,8 - 0,0
13.01.2020 19:00:00 11,2 8,8 43 23 57 31 S 1014,4 14 0,0
13.01.2020 18:00:00 11,0 8,6 36 20 52 28 S 1015,0 - 0,0
13.01.2020 17:00:00 10,9 8,5 34 19 51 28 S 1015,6 - 0,0
13.01.2020 16:00:00 10,8 8,4 38 20 53 29 S 1016,1 10 0,0
13.01.2020 15:00:00 10,5 7,7 37 20 53 28 S 1017,0 - 0,0
13.01.2020 14:00:00 10,6 7,5 39 21 56 30 S 1017,9 - 0,0
13.01.2020 13:00:00 10,2 8,1 44 24 59 32 S 1018,6 10 0,0
13.01.2020 12:00:00 10,5 8,8 38 20 52 28 S 1019,9 - 0,0
13.01.2020 11:00:00 10,5 9,3 38 20 52 28 S 1021,3 - 0,0
13.01.2020 10:00:00 10,8 9,6 35 19 49 27 S 1021,5 - 0,0
13.01.2020 09:00:00 10,9 9,8 34 18 49 26 S 1021,8 - 0,0
13.01.2020 08:00:00 11,3 10,0 27 14 52 28 S 1021,8 - 0,0
13.01.2020 07:00:00 11,2 9,9 38 20 52 28 S 1022,3 16 0,0
13.01.2020 06:00:00 11,3 10,2 34 18 50 27 S 1023,0 - 0,0
13.01.2020 05:00:00 11,3 10,7 35 19 50 27 S 1023,6 - 0,0
13.01.2020 04:00:00 11,5 11,2 35 19 46 25 SSW 1024,3 7 0,2
13.01.2020 03:00:00 11,3 11,1 19 10 29 15 SSW 1025,3 - 0,2
13.01.2020 02:00:00 10,8 10,5 12 6 25 13 S 1026,0 - 0,4
13.01.2020 01:00:00 11,1 10,9 16 9 25 13 S 1026,7 6 0,0
13.01.2020 00:00:00 11,3 11,1 10 6 15 8 S 1027,3 - 0,0
12.01.2020 23:00:00 11,2 11,0 8 4 15 8 S 1027,7 - 0,0
12.01.2020 22:00:00 11,4 11,2 9 5 13 7 SSW 1028,0 6 0,0
12.01.2020 21:00:00 11,6 11,4 11 6 14 8 SW 1028,4 - 0,0
12.01.2020 20:00:00 11,7 11,5 8 5 15 8 WSW 1028,8 - 0,0
12.01.2020 19:00:00 11,5 11,3 7 4 18 10 WSW 1028,7 10 0,0
12.01.2020 18:00:00 11,5 11,2 17 9 30 16 W 1028,6 - 0,8
12.01.2020 17:00:00 11,8 11,5 21 11 27 15 SW 1028,4 - 0,0
12.01.2020 16:00:00 11,7 11,4 20 11 30 16 SW 1028,5 0,9 0,2
12.01.2020 15:00:00 11,7 11,2 19 11 29 16 SW 1028,6 - 0,0
12.01.2020 14:00:00 11,8 10,9 22 12 29 16 SW 1029,1 - 0,0
12.01.2020 13:00:00 12,0 10,2 22 12 32 17 SSW 1029,8 10 0,0
12.01.2020 12:00:00 12,0 10,2 17 9 27 15 SSW 1030,5 - 0,0

tt = temperature
td = dewpoint
ff = wind speed
fx = gusts
dd = wind direction
ppp = reduced air pressure
vv = visibility
rr = precipitation

Next stations